COSMOS 249 DEB, 18549

Orbit data source: Space-Track

COSMOS 249 DEB, 18549 is space debris in LEO originally from a launch on Sun, 20 Oct 1968 UTC launched from the Tyuratam Missile And Space Complex (TTMTR). Debris objects in space refer to the collection of defunct objects orbiting the Earth. Examples of debris include non-operational satellites, rocket bodies, and fragments generated from explosions, collisions, or faulty payload assembly.

Loading next visibility...
Identifier
18549, 1968-091DE
Orbit
LEO
Country
Flag of CISCIS
Related business
Manufacturer
Unknown
Mission
Spacecraft
Bus & Motor
Unknown
Mass
Unknown
Launch date (UTC)
1968-10-20 (58 years ago)
Launch vehicle
Unknown
Launch site
Tyuratam Missile And Space Complex (TTMTR)
Object type
Payload
Rocket body
Debris
Shape & HBR
Unknown shape, 0.1 m
Radar Cross Section
Medium (>0.1 m² and <1 m²)

Expand to show TLE details & history
Last TLE update: 1 day ago

TLE from 1 day ago
0 COSMOS 249 DEB
1 18549U 68091DE  26205.98314029  .00000856  00000-0  11285-2 0  9990
2 18549  62.2231  44.6338 0639962 287.9076 228.6286 13.02771738634395
Epoch: 2026-07-24T23:35Z
TLE epoch observation values (Epoch: 2026-07-24T23:35:43.321Z)
Latitude
25.17318°
Longitude
-86.26155°
Altitude
1,592.27 km
Speed
6.917 km/s
True Right ascension
14h 01m 29s
True Declination
25° 03' 18"
Sunlit
Object was in daylight at epoch
Visualization orbit readout
Latitude
Unknown
Longitude
Unknown
Altitude
Unknown
Speed
Unknown
Apparent Right ascension
Unknown
Apparent Declination
Unknown
Sunlit
N/A
Visualization observer readout
Local Sidereal Time
19:22:04
Azimuth
Unknown
Elevation
Unknown
Doppler factor
Unknown
Orbital elements
Apogee altitude
1,738.43 km
Perigee altitude
762.055 km
Semi-major axis
7,628.379 km
Eccentricity
0.064
Inclination
62.2231°
RAAN
44.6338°
Arg. of periapsis
287.9076°
True anomaly
223.40934°
Mean anomaly
228.6286°
Eccentric anomaly
225.99137°
Mean motion
3.25758 °/min
Orbital period
110.51 mins
BSTAR
0.0011285
Loading maneuver chart data...
Computing Atmospheric mass density...

Documentation

Showing up to 5 results
|